| time (UTC) | temp C | wind direction | speed KPH | gust KPH | rain 1hr cm | rain 24hr cm | rain mn cm | humidity % | barometer mb |
| 20260505003035 | 12 | 218 | 1.6 | 6.4 | 0.08 | 0.64 | 0.08 | 96 | 1009.4 |
| 20260505001535 | 12 | 0 | 0.0 | 3.2 | 0.03 | 0.58 | 0.03 | 96 | 1009.6 |
| 20260505000035 | 12 | 0 | 0.0 | 3.2 | 0.03 | 0.58 | 0.03 | 95 | 1009.5 |
| 20260504234538 | 12 | 0 | 0.0 | 4.8 | 0.00 | 0.71 | 0.00 | 95 | 1009.7 |
| 20260504233048 | 12 | 0 | 1.6 | 4.8 | 0.00 | 0.69 | 0.00 | 95 | 1009.8 |
| 20260504231535 | 13 | 143 | 0.0 | 4.8 | 0.00 | 0.69 | 0.00 | 95 | 1009.8 |
| 20260504230035 | 13 | 143 | 0.0 | 1.6 | 0.00 | 0.69 | 0.00 | 94 | 1009.9 |
| 20260504224534 | 12 | 111 | 0.0 | 3.2 | 0.00 | 1.12 | 0.00 | 93 | 1009.7 |
| 20260504223040 | 12 | 0 | 0.0 | 3.2 | 0.00 | 1.12 | 0.00 | 93 | 1009.8 |
| 20260504221540 | 12 | 0 | 0.0 | 1.6 | 0.00 | 1.12 | 0.00 | 93 | 1009.8 |
| 20260504220047 | 12 | 0 | 0.0 | 1.6 | 0.00 | 1.12 | 0.00 | 92 | 1009.9 |
| 20260504214536 | 13 | 115 | 0.0 | 1.6 | 0.00 | 1.17 | 1.12 | 92 | 1010.0 |
| 20260504213035 | 13 | 0 | 0.0 | 4.8 | 0.00 | 1.17 | 1.12 | 91 | 1010.0 |
| 20260504211531 | 13 | 45 | 1.6 | 11.3 | 0.00 | 1.17 | 1.12 | 91 | 1010.4 |
| 20260504210037 | 13 | 7 | 3.2 | 11.3 | 0.00 | 1.17 | 1.12 | 93 | 1010.4 |
| 20260504204551 | 15 | 0 | 1.6 | 4.8 | 0.00 | 1.17 | 1.12 | 93 | 1010.4 |
| 20260504203037 | 15 | 0 | 0.0 | 3.2 | 0.00 | 1.17 | 1.12 | 92 | 1010.4 |
| 20260504201535 | 15 | 336 | 1.6 | 4.8 | 0.00 | 1.17 | 1.12 | 91 | 1010.2 |
| 20260504200042 | 15 | 0 | 0.0 | 0.0 | 0.00 | 1.17 | 1.12 | 91 | 1010.2 |
| 20260504194541 | 15 | 0 | 0.0 | 1.6 | 0.00 | 1.22 | 1.12 | 90 | 1010.2 |
| 20260504193037 | 16 | 0 | 0.0 | 0.0 | 0.00 | 1.22 | 1.12 | 88 | 1009.8 |
| 20260504191539 | 16 | 0 | 0.0 | 1.6 | 0.00 | 1.22 | 1.12 | 85 | 1010.1 |
| 20260504190038 | 16 | 51 | 0.0 | 4.8 | 0.00 | 1.22 | 1.12 | 83 | 1009.7 |
| 20260504184537 | 16 | 50 | 0.0 | 3.2 | 0.00 | 1.24 | 1.12 | 86 | 1009.8 |
| 20260504183037 | 16 | 0 | 0.0 | 3.2 | 0.00 | 1.24 | 1.12 | 85 | 1009.8 |
| 20260504181542 | 17 | 103 | 0.0 | 1.6 | 0.00 | 1.24 | 1.12 | 84 | 1009.8 |
| 20260504180035 | 17 | 0 | 0.0 | 1.6 | 0.00 | 1.24 | 1.12 | 81 | 1009.9 |
| 20260504174535 | 17 | 0 | 0.0 | 3.2 | 0.00 | 1.24 | 1.12 | 78 | 1009.9 |
| 20260504173036 | 18 | 88 | 1.6 | 6.4 | 0.00 | 1.24 | 1.12 | 76 | 1009.9 |
| 20260504171535 | 18 | 0 | 0.0 | 1.6 | 0.00 | 1.24 | 1.12 | 79 | 1009.9 |
| 20260504081546 | 12 | 0 | 0.0 | 4.8 | 0.05 | 1.27 | 1.09 | 95 | 1012.8 |
| 20260504044537 | 11 | 0 | 0.0 | 1.6 | 0.08 | 1.45 | 0.97 | 98 | 1012.4 |
| 20260504043039 | 12 | 0 | 0.0 | 1.6 | 0.08 | 1.42 | 0.94 | 98 | 1012.5 |
| 20260504041537 | 12 | 0 | 0.0 | 1.6 | 0.08 | 1.42 | 0.94 | 98 | 1012.5 |
| 20260504040043 | 12 | 0 | 0.0 | 0.0 | 0.08 | 1.40 | 0.94 | 97 | 1012.4 |
| 20260504034537 | 12 | 0 | 0.0 | 1.6 | 0.05 | 1.40 | 0.89 | 97 | 1012.6 |
| 20260504033044 | 12 | 0 | 0.0 | 0.0 | 0.03 | 1.40 | 0.86 | 97 | 1012.6 |
| 20260504031541 | 12 | 0 | 0.0 | 0.0 | 0.03 | 1.37 | 0.84 | 97 | 1012.7 |
| 20260504030037 | 12 | 0 | 0.0 | 0.0 | 0.08 | 1.37 | 0.84 | 97 | 1012.7 |
| 20260504024538 | 12 | 0 | 0.0 | 1.6 | 0.10 | 1.35 | 0.84 | 97 | 1012.7 |
| 20260504023038 | 12 | 0 | 0.0 | 1.6 | 0.18 | 1.35 | 0.84 | 97 | 1012.8 |
| 20260504021538 | 12 | 0 | 0.0 | 1.6 | 0.18 | 1.32 | 0.81 | 97 | 1012.8 |
| 20260504020057 | 12 | 0 | 0.0 | 1.6 | 0.18 | 1.30 | 0.76 | 97 | 1012.8 |
| 20260504014554 | 12 | 0 | 0.0 | 0.0 | 0.10 | 1.22 | 0.71 | 97 | 1012.7 |
| 20260504013047 | 12 | 0 | 0.0 | 0.0 | 0.05 | 1.14 | 0.64 | 97 | 1012.6 |
| 20260504011545 | 12 | 0 | 0.0 | 0.0 | 0.03 | 1.12 | 0.61 | 97 | 1012.6 |
| 20260504010045 | 12 | 0 | 0.0 | 0.0 | 0.00 | 1.12 | 0.58 | 97 | 1012.6 |
| 20260504004553 | 12 | 0 | 0.0 | 0.0 | 0.00 | 1.12 | 0.58 | 97 | 1012.7 |